GW5398 Weather Reports


time (UTC)temp
C
wind
direction
speed
KPH
gust
KPH
rain 1hr
cm
rain 24hr
cm
rain mn
cm
humidity
%
barometer
mb
20260507060011 10 113 0.0 0.0 0.00 0.00 0.00 91 1011.2
20260507020512 7 115 0.0 0.0 0.00 0.00 0.00 94 1011.5
20260507020011 7 115 0.0 0.0 0.00 0.00 0.00 94 1011.5
20260507015510 7 109 1.6 3.2 0.00 0.00 0.00 95 1011.5
20260507015010 7 110 1.6 1.6 0.00 0.00 0.00 94 1011.9
20260507014510 7 117 0.0 0.0 0.00 0.00 0.00 94 1011.5
20260507014009 7 117 0.0 0.0 0.00 0.00 0.00 94 1011.2
20260507013509 7 117 0.0 0.0 0.00 0.00 0.00 94 1011.9
20260507013010 7 117 0.0 0.0 0.00 0.00 0.00 94 1011.5
20260507012511 7 117 0.0 0.0 0.00 0.00 0.00 94 1011.9
20260507012009 7 117 0.0 0.0 0.00 0.00 0.00 94 1011.9
20260507011511 7 117 0.0 0.0 0.00 0.00 0.00 94 1011.9
20260507011010 7 117 0.0 1.6 0.00 0.00 0.00 94 1011.5
20260507010511 7 117 0.0 0.0 0.00 0.00 0.00 93 1011.5
20260507010012 7 117 0.0 0.0 0.00 0.00 0.00 93 1011.9
20260507005031 7 117 0.0 0.0 0.00 0.00 0.00 93 1011.9
20260507004511 7 117 0.0 0.0 0.00 0.00 0.00 93 1011.9
20260507004010 7 116 0.0 1.6 0.00 0.00 0.00 93 1011.9
20260507003509 7 119 0.0 0.0 0.00 0.00 0.00 93 1012.2
20260507003010 7 119 0.0 0.0 0.00 0.00 0.00 93 1011.9